Temperature
4 4 4 4 4 4 4 4 4 4 4 4 4 3 3 3 3 3 3 3 3 3 3 3 3 3 3 3 4 4 4 4 4 5 5 5 5 5 5 5 5 6 6 6
4 4 4 4 4 4 4 4 4 4 4 4 4 4 3 3 3 2 2 2 2 3 3 3 3 3 3 3 3 3 4 4 4 4 4 4 4 4 5 5 5 5 5 5
4 4 5 5 4 4 4 4 4 4 4 3 3 3 3 3 3 3 3 3 3 3 2 2 3 3 3 3 3 3 3 3 3 4 4 4 4 4 4 4 4 4 5 5
3 4 6 6 5 4 4 4 4 4 4 3 3 4 4 4 3 3 3 3 3 2 2 2 2 2 2 3 3 3 3 3 3 3 3 3 3 4 4 4 4 4 4 4
3 3 4 5 5 4 4 5 4 4 3 3 3 3 3 4 4 3 3 3 3 2 2 2 2 2 2 2 2 2 2 2 2 2 2 3 3 3 3 3 3 3 3 3
3 4 5 6 5 5 5 5 4 3 3 2 3 2 3 4 4 3 3 3 2 2 2 2 2 2 2 2 2 2 2 2 1 2 2 2 2 2 2 2 3 3 3 3
3 3 3 4 4 5 5 6 5 4 4 3 3 3 4 4 3 3 3 3 2 2 2 2 2 2 2 1 1 1 1 1 1 1 1 1 1 1 2 2 2 2 2 2
2 3 4 4 3 4 5 5 5 5 5 4 4 4 4 4 3 3 3 2 2 2 2 1 1 1 1 1 1 1 1 1 1 1 1 1 1 1 1 1 1 1 1 1
2 4 4 4 5 6 5 5 5 5 5 5 4 4 4 4 3 3 2 2 2 2 1 1 1 1 1 0 0 0 0 0 0 0 0 0 0 0 0 0 0 0 0 0
1 2 3 4 5 6 6 6 6 5 5 5 5 4 4 3 3 3 2 2 2 1 1 1 1 0 0 0 -0 -0 -0 -0 -0 -0 -0 -0 -0 -1 -1 -1 -1 -1 -1 -1
1 1 3 5 6 6 6 6 5 5 5 5 4 4 4 3 3 2 2 2 1 1 1 1 0 0 -0 -0 -0 -0 -0 -1 -1 -1 -1 -1 -1 -1 -1 -1 -1 -2 -2 -2
2 3 2 5 6 6 6 6 5 5 4 4 4 4 3 3 3 2 2 1 1 1 1 0 -0 -0 -1 -1 -1 -1 -1 -1 -1 -1 -1 -1 -2 -1 -1 -2 -2 -2 -2 -2
4 5 5 5 5 5 5 5 5 5 4 4 4 3 3 3 2 2 1 1 1 1 0 0 -0 -0 -1 -1 -1 -1 -2 -2 -2 -2 -2 -2 -2 -2 -2 -2 -2 -2 -2 -2
4 4 3 4 5 5 5 4 4 4 4 3 3 3 2 2 2 1 1 1 1 0 0 -0 -1 -1 -1 -1 -1 -1 -2 -2 -2 -2 -2 -2 -3 -3 -3 -3 -2 -2 -2 -2
4 3 3 4 4 4 4 4 4 3 3 3 3 2 2 2 1 1 1 1 0 -0 -0 -1 -1 -1 -1 -2 -2 -2 -2 -2 -2 -3 -3 -3 -3 -3 -3 -3 -3 -3 -3 -2
3 3 3 3 3 3 3 3 3 3 3 3 2 2 2 1 1 1 1 0 -0 -0 -1 -1 -1 -1 -2 -2 -2 -2 -2 -2 -3 -3 -3 -3 -3 -3 -3 -3 -3 -3 -3 -3
2 2 2 2 3 3 3 3 3 3 2 2 2 2 1 1 1 0 0 -0 -1 -1 -1 -1 -2 -2 -2 -2 -2 -3 -3 -3 -3 -3 -3 -3 -3 -4 -4 -4 -4 -4 -4 -4
3 3 2 2 2 2 2 2 2 2 2 2 1 1 1 0 0 -0 -0 -1 -1 -1 -1 -2 -2 -2 -2 -2 -3 -3 -3 -3 -3 -3 -3 -4 -4 -4 -4 -4 -4 -4 -4 -4
3 3 3 2 2 2 2 2 2 2 1 1 1 0 0 -0 -0 -1 -1 -1 -1 -1 -1 -2 -2 -2 -3 -3 -3 -3 -3 -3 -4 -4 -4 -4 -4 -4 -4 -4 -4 -4 -4 -4
3 3 2 2 2 2 2 2 1 1 1 0 0 -0 -0 -1 -1 -1 -1 -1 -2 -2 -2 -2 -2 -3 -3 -3 -4 -4 -4 -4 -4 -4 -4 -4 -4 -4 -5 -5 -5 -5 -5 -5
2 2 2 2 2 2 1 1 1 1 0 -0 -0 -1 -1 -1 -1 -2 -2 -2 -2 -2 -3 -3 -3 -3 -3 -4 -4 -4 -4 -4 -4 -5 -5 -5 -5 -5 -5 -5 -5 -5 -5 -5
2 2 1 1 1 1 1 1 0 0 -0 -0 -1 -1 -1 -2 -2 -2 -2 -2 -2 -3 -3 -3 -3 -3 -4 -4 -4 -4 -5 -5 -5 -5 -5 -5 -5 -5 -5 -5 -5 -5 -5 -5
1 1 1 1 1 0 0 0 0 -0 -1 -1 -1 -2 -2 -2 -2 -2 -2 -2 -3 -3 -3 -4 -4 -4 -4 -4 -5 -5 -5 -5 -5 -5 -5 -5 -5 -5 -5 -6 -6 -6 -6 -6
1 1 1 0 0 -0 -0 -0 -0 -1 -1 -1 -2 -2 -2 -2 -2 -2 -3 -3 -3 -3 -4 -4 -4 -5 -5 -5 -5 -5 -5 -5 -5 -5 -6 -6 -6 -6 -6 -6 -6 -6 -6 -6
0 0 0 -0 -0 -0 -0 -1 -1 -1 -2 -2 -2 -2 -2 -3 -3 -3 -3 -3 -4 -4 -4 -4 -5 -5 -5 -5 -5 -5 -6 -6 -6 -6 -6 -6 -6 -6 -6 -6 -6 -6 -6 -6
-0 -0 -1 -1 -1 -1 -1 -1 -2 -2 -2 -2 -2 -3 -3 -3 -3 -3 -4 -4 -4 -4 -4 -5 -5 -5 -5 -6 -6 -6 -6 -6 -6 -6 -6 -6 -6 -6 -6 -6 -7 -7 -7 -7
-1 -1 -1 -1 -1 -1 -1 -2 -2 -2 -2 -3 -3 -3 -3 -3 -4 -4 -4 -4 -5 -5 -5 -5 -5 -6 -6 -6 -6 -6 -6 -6 -6 -6 -6 -7 -7 -7 -7 -7 -7 -7 -7 -7
Wind_Speed
5 6 4 5 5 4 5 6 6 6 6 8 4 3 2 2 2 4 5 6 7 7 7 8 9 10 10 10 10 9 10 10 9 8 7 7 7 6 5 4 3 2 1 1
4 3 4 5 7 6 5 5 5 5 7 5 2 1 1 1 1 2 3 4 5 6 7 7 8 8 8 9 9 8 9 9 8 8 8 8 7 6 6 5 4 3 2 1
4 6 4 6 6 6 5 5 6 6 6 2 2 3 4 3 2 1 2 2 3 4 5 5 6 6 6 7 7 8 8 8 8 8 8 8 7 7 6 6 4 3 2 2
3 5 4 5 2 5 5 5 7 6 4 4 4 3 2 3 3 2 2 2 2 3 3 4 5 5 5 6 7 7 8 8 9 9 8 8 7 7 6 5 4 3 3 3
1 3 8 6 2 3 3 5 5 6 4 2 1 2 2 2 3 3 3 2 1 1 2 3 4 4 4 6 7 7 8 8 8 8 8 8 8 8 6 5 5 4 4 4
1 2 5 5 1 2 2 5 3 5 5 3 3 0 4 2 1 1 1 1 0 1 2 2 3 3 4 5 6 7 7 7 7 7 7 7 7 6 6 5 4 4 4 4
3 4 8 6 1 3 2 5 2 4 5 5 5 5 3 1 1 1 1 1 1 1 1 2 3 3 4 5 5 6 6 6 7 6 6 6 6 6 6 5 4 4 4 4
4 4 8 3 4 4 6 3 2 4 5 5 4 2 2 2 2 1 1 1 1 1 1 2 2 3 4 4 5 5 5 6 6 6 6 6 6 5 5 5 4 4 4 5
8 8 5 4 6 4 2 3 3 4 4 5 4 3 3 2 2 2 1 1 0 0 1 2 2 2 3 4 5 5 5 5 6 6 5 5 5 5 5 5 4 5 5 5
6 9 7 7 7 5 4 5 4 4 4 5 5 4 4 3 2 2 1 1 1 1 1 2 2 2 3 4 4 4 5 6 6 6 6 6 5 4 4 4 5 5 5 5
7 8 8 6 6 6 4 4 3 2 4 5 5 4 4 4 3 3 2 1 1 2 2 3 3 3 3 3 3 4 5 5 5 5 6 6 5 4 5 4 5 6 5 4
8 6 5 7 5 3 4 5 5 4 3 3 5 5 4 4 3 3 2 2 2 2 3 3 3 3 3 3 2 3 4 5 4 5 5 5 5 6 7 7 9 8 7 7
7 4 5 7 5 3 4 5 4 5 5 4 4 4 4 3 3 3 3 3 3 4 3 3 3 3 3 3 3 3 4 4 4 4 4 5 5 5 6 7 8 8 8 8
7 4 5 5 5 4 4 3 2 2 3 3 3 3 3 3 2 3 4 4 3 3 2 2 3 3 3 3 3 3 4 5 4 4 4 4 4 4 4 5 6 6 7 9
6 7 7 6 4 3 2 2 2 2 2 2 3 3 4 4 4 4 4 2 2 2 2 2 3 4 3 2 3 3 4 4 4 4 4 4 4 4 4 4 4 5 5 6
6 5 5 5 6 5 3 4 5 5 4 4 4 4 4 4 4 3 3 2 2 3 3 3 4 4 3 2 3 3 3 5 5 4 4 4 4 4 4 4 4 4 5 5
4 5 5 6 7 7 7 7 7 6 5 5 5 4 3 3 2 3 3 3 3 4 4 4 4 4 3 3 3 3 3 4 5 4 3 3 3 3 4 4 4 4 4 6
9 9 8 8 7 7 7 6 6 6 6 5 4 4 4 5 5 5 4 2 2 3 4 4 4 3 3 3 3 2 3 3 3 4 3 3 3 3 3 3 4 4 4 5
6 7 7 7 7 6 6 5 5 5 4 4 5 5 5 5 5 4 3 3 4 5 5 4 4 3 3 4 3 2 3 3 3 3 3 4 4 3 3 3 3 4 3 3
5 5 5 5 4 4 5 4 4 3 4 4 4 4 4 4 4 4 4 5 6 5 4 4 3 3 4 4 3 2 3 3 3 3 3 3 3 3 3 3 3 3 3 3
5 4 4 4 3 3 3 4 4 4 4 4 5 6 5 4 4 4 4 5 5 4 4 4 3 3 3 3 3 2 3 3 3 3 3 3 3 3 3 3 3 3 3 3
4 4 4 4 3 3 3 3 3 4 4 4 4 4 4 4 4 4 5 5 4 4 3 3 3 4 4 3 2 3 3 3 3 3 3 3 3 4 4 4 3 4 3 3
4 4 4 4 4 3 3 3 4 4 5 5 6 6 5 5 4 4 5 4 3 5 3 3 4 6 5 2 2 3 4 4 4 4 4 4 4 4 4 4 4 3 3 3
4 4 4 3 2 3 4 4 3 3 4 4 5 5 5 4 4 4 4 4 5 5 3 4 6 6 4 2 2 3 4 4 4 4 4 4 4 4 3 3 4 4 4 4
5 4 4 4 4 5 5 3 3 3 3 3 4 4 4 4 4 4 3 4 5 4 3 4 5 5 3 2 3 3 4 4 4 4 4 4 4 4 4 4 4 4 4 4
5 5 5 5 5 4 4 3 3 3 3 3 3 3 3 2 3 3 3 3 4 4 3 2 3 3 2 3 3 4 4 4 4 4 4 4 4 4 4 4 5 4 4 4
4 4 3 4 4 4 4 4 4 5 5 5 4 3 3 3 3 3 3 3 3 3 2 2 2 2 3 3 3 3 3 3 3 3 4 4 4 4 4 5 4 4 4 4
Wind_Direction
257 262 251 253 257 233 209 210 220 247 253 269 267 259 276 315 353 13 14 16 16 13 12 15 17 15 16 15 14 19 24 24 19 16 20 23 23 18 13 10 356 323 295 294
303 298 276 269 260 242 232 222 231 254 270 264 240 221 273 287 333 354 358 3 4 8 10 10 12 10 10 9 7 15 23 20 13 15 16 16 16 14 14 11 1 356 353 340
294 312 328 284 246 210 219 211 193 220 241 219 253 239 228 226 225 271 316 337 350 354 354 358 0 2 5 2 4 14 18 15 11 11 12 8 5 7 6 2 359 356 356 356
305 348 282 254 242 193 218 247 223 233 239 221 238 252 248 210 202 230 258 292 320 339 347 351 353 357 358 5 11 14 14 9 5 4 3 0 2 360 356 353 351 352 351 345
354 308 287 297 243 180 205 282 228 219 234 203 100 9 308 230 204 213 219 230 255 301 336 350 352 349 1 11 13 13 8 1 356 355 353 353 353 349 346 348 349 348 347 345
156 278 263 274 260 178 105 294 252 197 201 172 120 314 268 238 197 207 208 193 179 13 16 7 346 351 17 12 10 3 351 344 344 346 345 340 337 336 337 340 338 339 340 338
202 245 268 262 217 118 155 267 269 190 190 177 193 218 236 182 193 188 195 163 109 73 16 333 342 7 16 5 351 338 337 338 340 339 335 332 333 334 336 338 341 343 338 333
179 220 262 220 137 184 231 276 224 198 192 195 216 228 195 183 180 154 111 70 78 61 337 330 355 15 0 336 327 334 335 336 334 333 334 336 334 334 338 337 341 344 346 339
203 224 258 215 220 250 231 244 239 212 212 189 199 217 212 197 182 174 170 181 172 228 305 321 340 357 320 312 323 329 332 333 330 333 335 334 335 338 342 344 342 340 339 333
265 267 264 257 258 269 247 243 245 225 206 189 202 209 208 203 200 196 188 195 200 218 283 303 307 309 297 310 322 327 329 331 335 339 339 340 339 338 337 335 331 328 327 322
263 280 298 283 250 252 257 250 238 231 208 201 194 207 207 208 211 210 215 211 208 227 254 273 285 294 307 313 324 325 325 331 333 334 331 331 330 325 322 310 312 313 309 308
237 242 234 270 280 243 236 239 225 211 216 213 200 204 205 213 212 205 211 215 234 245 258 270 271 282 298 308 320 325 326 328 326 327 326 327 325 327 327 326 324 326 325 321
243 258 241 271 280 244 234 239 228 213 208 214 209 197 195 210 210 205 215 218 227 237 252 266 274 285 302 316 320 313 309 311 315 320 320 322 325 326 327 329 333 339 344 346
247 259 272 261 257 257 244 240 221 217 214 198 192 186 185 194 205 214 224 228 231 241 256 265 274 284 294 298 306 306 307 307 312 307 309 312 313 315 317 323 329 333 340 348
252 235 247 266 267 258 238 200 201 221 213 202 186 185 189 199 216 227 228 223 224 244 258 265 274 285 296 292 297 298 303 305 305 305 306 307 310 313 316 318 322 327 335 343
278 271 256 254 252 247 232 218 221 227 217 210 205 210 210 211 217 221 216 198 212 247 256 256 264 277 283 284 291 290 293 304 313 308 306 310 313 317 320 322 326 331 336 335
250 263 253 257 253 250 238 230 226 223 213 212 216 209 196 194 214 228 233 229 235 247 249 249 262 274 270 270 271 280 289 299 308 308 301 302 306 311 315 318 321 323 324 328
234 242 241 243 247 248 248 239 229 220 216 213 198 185 190 201 220 232 237 241 253 268 260 256 265 273 265 266 270 274 278 284 291 293 299 301 306 308 308 309 313 316 323 330
253 252 251 248 242 235 235 235 230 222 208 190 189 200 209 216 221 224 215 217 234 255 261 259 270 264 258 263 278 267 276 282 288 293 293 302 309 310 309 308 311 314 318 326
260 254 252 254 248 234 233 229 216 212 203 191 192 200 215 223 217 213 218 233 235 239 247 253 254 256 258 261 273 259 265 270 275 283 288 286 288 291 294 299 303 308 311 314
266 261 257 254 260 251 229 211 199 208 207 193 197 209 220 226 216 210 223 250 251 241 245 249 247 252 251 260 266 255 255 262 267 270 275 279 282 284 285 289 294 299 302 305
258 255 257 254 251 256 246 217 206 207 206 208 210 209 211 222 224 230 234 238 244 244 245 240 245 258 265 261 243 248 254 259 263 264 265 268 272 274 277 282 286 292 295 298
253 247 245 243 242 250 253 228 212 210 212 213 213 213 219 225 219 226 251 241 231 237 239 241 256 267 271 254 240 246 254 256 257 258 260 261 262 264 269 274 278 283 286 291
249 245 241 235 218 231 246 246 227 224 223 225 222 216 213 226 240 233 240 237 232 240 244 249 255 263 266 253 246 248 254 256 255 255 257 259 259 261 263 268 275 279 281 285
239 236 230 219 223 234 238 234 225 226 225 234 234 226 217 216 228 237 230 229 232 239 249 248 251 260 261 253 253 255 256 257 259 256 251 256 258 259 262 264 266 271 274 277
232 231 230 230 232 231 222 218 226 227 225 240 247 234 226 225 221 221 227 230 229 237 240 245 249 256 255 254 256 259 261 269 275 270 261 259 257 257 260 263 266 266 269 273
232 234 233 241 239 224 219 220 226 229 223 227 241 230 219 218 218 221 224 229 229 232 238 242 245 248 251 255 261 263 265 265 266 265 263 259 258 257 259 260 262 265 268 271
Height
1484 1480 1480 1478 1476 1476 1478 1477 1478 1471 1469 1463 1462 1462 1461 1460 1459 1457 1456 1454 1451 1449 1446 1444 1442 1440 1437 1436 1434 1432 1430 1429 1428 1427 1426 1426 1425 1425 1425 1425 1426 1427 1427 1427
1482 1478 1477 1475 1472 1473 1473 1472 1472 1470 1467 1461 1461 1461 1461 1460 1459 1458 1457 1456 1454 1452 1449 1447 1445 1443 1441 1439 1437 1435 1433 1432 1430 1429 1427 1426 1425 1424 1424 1423 1423 1423 1423 1424
1485 1481 1475 1473 1468 1468 1468 1467 1467 1467 1463 1460 1460 1460 1460 1460 1460 1459 1458 1457 1456 1454 1452 1450 1448 1446 1444 1441 1439 1437 1435 1433 1432 1429 1427 1426 1425 1424 1422 1421 1421 1421 1420 1421
1488 1482 1476 1467 1462 1462 1463 1462 1462 1460 1459 1459 1458 1458 1459 1459 1459 1459 1458 1458 1456 1455 1453 1452 1450 1448 1446 1444 1441 1439 1437 1435 1433 1431 1429 1427 1426 1424 1423 1421 1420 1419 1418 1418
1490 1487 1478 1464 1461 1462 1463 1460 1456 1457 1457 1458 1458 1458 1458 1458 1458 1458 1458 1457 1456 1455 1454 1452 1451 1449 1447 1444 1442 1440 1438 1436 1434 1432 1430 1428 1426 1424 1422 1420 1419 1417 1416 1415
1490 1485 1477 1462 1460 1459 1462 1460 1454 1454 1455 1457 1458 1461 1458 1456 1456 1456 1456 1456 1455 1454 1453 1452 1450 1449 1447 1444 1442 1440 1438 1437 1435 1432 1430 1428 1426 1424 1421 1419 1417 1416 1415 1414
1489 1487 1474 1462 1460 1461 1466 1459 1452 1452 1453 1454 1456 1456 1456 1455 1455 1455 1455 1455 1454 1453 1452 1450 1449 1448 1446 1444 1442 1441 1439 1436 1434 1432 1430 1428 1425 1423 1420 1418 1416 1414 1412 1411
1487 1485 1473 1459 1459 1461 1457 1452 1451 1450 1451 1452 1453 1453 1453 1453 1453 1453 1453 1453 1452 1452 1451 1450 1448 1446 1445 1443 1442 1440 1438 1436 1434 1431 1429 1427 1424 1421 1419 1417 1414 1411 1410 1409
1476 1468 1458 1456 1454 1453 1452 1451 1450 1449 1450 1451 1451 1451 1451 1451 1452 1452 1452 1451 1451 1450 1449 1448 1447 1445 1443 1442 1441 1439 1436 1434 1432 1430 1427 1425 1422 1420 1417 1415 1412 1410 1408 1406
1469 1458 1454 1452 1451 1451 1450 1449 1449 1449 1449 1449 1449 1449 1450 1450 1450 1450 1450 1450 1449 1448 1447 1446 1445 1443 1442 1441 1439 1437 1435 1433 1430 1428 1425 1423 1421 1418 1416 1413 1411 1409 1407 1404
1465 1456 1451 1447 1447 1447 1447 1447 1447 1447 1447 1447 1448 1448 1448 1448 1448 1448 1448 1448 1447 1446 1445 1444 1443 1442 1440 1439 1437 1435 1434 1431 1428 1426 1424 1421 1419 1417 1415 1413 1411 1409 1406 1404
1457 1450 1450 1446 1445 1444 1444 1444 1444 1444 1444 1445 1446 1446 1446 1446 1446 1445 1445 1445 1444 1444 1443 1442 1441 1439 1438 1437 1435 1433 1431 1429 1427 1424 1422 1420 1417 1415 1413 1412 1409 1407 1405 1402
1448 1446 1445 1444 1443 1442 1442 1441 1442 1442 1442 1442 1442 1443 1443 1443 1443 1443 1442 1442 1441 1441 1440 1439 1438 1437 1435 1434 1432 1431 1429 1427 1425 1422 1420 1418 1415 1413 1411 1409 1407 1405 1402 1400
1444 1444 1441 1440 1440 1439 1439 1439 1439 1439 1439 1439 1440 1440 1440 1440 1440 1440 1439 1439 1438 1438 1437 1436 1435 1434 1433 1431 1430 1428 1426 1424 1422 1420 1418 1416 1414 1412 1409 1407 1404 1402 1400 1398
1440 1439 1438 1437 1436 1435 1435 1435 1435 1435 1435 1436 1436 1436 1436 1436 1436 1436 1436 1436 1435 1434 1434 1433 1432 1431 1430 1428 1427 1425 1423 1421 1420 1418 1416 1414 1412 1410 1408 1406 1403 1401 1398 1396
1435 1434 1433 1432 1431 1431 1431 1431 1431 1431 1432 1432 1432 1433 1433 1433 1433 1433 1432 1432 1431 1430 1430 1429 1428 1427 1426 1425 1424 1422 1420 1419 1417 1415 1413 1412 1410 1408 1406 1404 1402 1400 1397 1395
1431 1429 1428 1428 1427 1427 1427 1427 1427 1427 1428 1428 1429 1430 1429 1429 1429 1429 1428 1428 1428 1427 1427 1426 1425 1424 1423 1422 1420 1419 1417 1416 1414 1413 1411 1410 1408 1406 1404 1402 1400 1398 1397 1395
1427 1426 1426 1425 1423 1422 1422 1422 1423 1423 1424 1424 1425 1425 1425 1425 1425 1425 1425 1425 1424 1424 1423 1422 1421 1420 1419 1418 1417 1415 1414 1413 1411 1410 1408 1407 1405 1404 1402 1401 1399 1397 1395 1394
1422 1422 1421 1420 1420 1419 1418 1418 1418 1419 1419 1420 1421 1421 1421 1421 1422 1421 1421 1421 1420 1419 1419 1418 1418 1417 1415 1414 1413 1412 1411 1409 1408 1407 1406 1404 1403 1402 1400 1399 1397 1396 1394 1392
1418 1417 1417 1416 1416 1415 1414 1414 1414 1415 1415 1416 1416 1416 1417 1417 1418 1417 1417 1416 1416 1416 1415 1414 1413 1412 1411 1410 1410 1408 1407 1406 1405 1404 1403 1401 1400 1399 1398 1396 1395 1394 1392 1391
1414 1413 1413 1412 1412 1411 1411 1411 1410 1410 1411 1411 1412 1412 1412 1413 1413 1413 1412 1412 1412 1412 1411 1410 1409 1408 1407 1406 1405 1405 1404 1403 1401 1400 1399 1398 1397 1396 1395 1394 1393 1391 1390 1388
1411 1410 1409 1409 1408 1407 1407 1407 1407 1407 1407 1407 1407 1408 1408 1408 1409 1408 1408 1408 1408 1407 1406 1405 1405 1404 1403 1402 1401 1400 1400 1399 1398 1397 1396 1395 1394 1393 1392 1391 1389 1388 1387 1386
1408 1407 1406 1406 1405 1404 1403 1403 1403 1403 1403 1403 1403 1404 1404 1404 1404 1404 1403 1404 1403 1403 1402 1401 1400 1400 1399 1398 1397 1396 1396 1395 1394 1393 1392 1391 1390 1389 1388 1387 1386 1385 1384 1383
1405 1404 1403 1402 1401 1401 1400 1399 1399 1399 1399 1399 1400 1400 1400 1400 1400 1400 1399 1399 1399 1398 1397 1397 1396 1396 1395 1394 1393 1392 1392 1391 1390 1389 1388 1388 1387 1386 1385 1384 1383 1382 1381 1380
1401 1400 1399 1398 1397 1396 1396 1396 1395 1395 1395 1395 1395 1396 1396 1396 1395 1395 1395 1394 1394 1393 1393 1393 1392 1391 1391 1390 1389 1388 1388 1387 1386 1385 1384 1384 1383 1382 1381 1380 1379 1378 1377 1376
1396 1395 1394 1394 1393 1393 1392 1392 1391 1391 1391 1391 1391 1391 1391 1391 1391 1390 1390 1389 1389 1389 1388 1388 1387 1387 1386 1386 1385 1384 1384 1383 1382 1381 1380 1380 1379 1378 1377 1376 1375 1374 1373 1373
1391 1390 1389 1389 1388 1388 1388 1387 1387 1386 1386 1386 1386 1386 1386 1386 1386 1385 1385 1385 1384 1384 1384 1383 1383 1383 1382 1382 1381 1380 1380 1379 1378 1378 1377 1376 1375 1374 1373 1372 1372 1371 1370 1369